Flag Weather past 2 weeks in Santarém, Para, Brazil

Now
79 °F

Clear.


Feels Like: 82 °F
Forecast: 78 / 96 °F
Wind: 5 mph from Southeast

Location: Santarem-Aeroporto

Current Time: Oct 31, 2014 at 2:37:59 AM

Latest Report: Oct 31, 2014 at 2:00 AM


Visibility: 10 mi

Pressure: 29.77 "Hg

Humidity: 89%

Dew point: 75 °F

Location of SantarémLocation

Historic Weather in Santarém — Graph

°F

Santarém temperature yesterday

Maximum temperature yesterday: 91 °F (at 2:00 PM)
Minimum temperature yesterday: 77 °F (at 1:00 AM)
Average temperature yesterday: 84 °F

Past Weeks' High & Low Weather Summary

 TemperatureHumidityPressure
High93 °F (Oct 16, 3:00 PM)100% (Oct 16, 2:00 AM)29.95 "Hg (Oct 16, 2:00 AM)
Low39 °F (Oct 26, 5:00 AM)22% (Oct 26, 4:00 AM)29.68 "Hg (Oct 25, 5:00 PM)
Average81 °F79%29.83 "Hg
* Reported Oct 16 1:00 AM — Oct 31 1:00 AM, Santarém, Weather by CustomWeather, © 2014

Note: Actual official high and low records may vary slightly from our data, if they occured in-between our weather recording intervals... More about our weather records

Advertising

Santarém weather history for previous 24 hours

 ConditionsComfort  
Time TempWeatherWind HumidityBarometerVisibility
1:00 AM
Oct 31
81 °FClear.3 mph84%29.77 "Hg10 mi
12:00 AM82 °FClear.5 mph84%29.77 "Hg10 mi
11:00 PM
Oct 30
81 °FClear.5 mph89%29.77 "Hg10 mi
10:00 PM79 °FClear.5 mph89%29.77 "Hg10 mi
9:00 PM79 °FClear.3 mph89%29.77 "Hg10 mi
8:00 PM81 °FClear.5 mph84%29.74 "Hg10 mi
7:00 PM82 °FClear.5 mph74%29.74 "Hg10 mi
6:00 PM88 °FPassing clouds.12 mph66%29.74 "HgN/A
5:00 PM90 °FPassing clouds.13 mph59%29.74 "HgN/A
4:00 PM91 °FPassing clouds.12 mph59%29.74 "HgN/A
3:00 PM91 °FPassing clouds.12 mph52%29.74 "HgN/A
2:00 PM91 °FPassing clouds.14 mph52%29.80 "HgN/A
1:00 PM90 °FPassing clouds.14 mph55%29.83 "HgN/A
12:00 PM90 °FPassing clouds.15 mph55%29.86 "HgN/A
11:00 AM88 °FPassing clouds.17 mph62%29.89 "HgN/A
10:00 AM86 °FPassing clouds.15 mph66%29.86 "HgN/A
9:00 AM84 °FPassing clouds.13 mph70%29.86 "HgN/A
8:00 AM82 °FSunny.12 mph74%29.83 "Hg10 mi
7:00 AM81 °FSunny.14 mph74%29.80 "Hg10 mi
6:00 AM81 °FClear.15 mph79%29.77 "Hg10 mi
5:00 AM81 °FClear.15 mph84%29.77 "Hg10 mi
4:00 AM79 °FClear.3 mph89%29.77 "Hg10 mi
3:00 AM79 °FClear.3 mph89%29.77 "Hg10 mi
2:00 AM81 °FClear.6 mph84%29.77 "Hg10 mi
Weather by CustomWeather, © 2014

See weather overviewHow to use our weather pages